Powrót do katalogu

AETHER-5

AktywnyŁącznośćSSO
NORAD 67376·PAYLOAD·🇨🇦 Canada

Wystrzelony Jan 11, 2026 z Vandenberg Space Force Base

Loading…

Następne Przeloty (najbliższe 24 godziny)

TLE

ŚwieżeSource: Space-Track

Epoka: Sep 14, 2026, 10:10 UTC

1 67376U 26004P   26257.42368855  .00000375  00000-0  49269-4 0  9993
2 67376  97.8106 254.3540 0000558 168.0670 192.0559 14.85805012 36544

Śledź AETHER-5 w czasie rzeczywistym z AllMySat

Download on the App Store